Location: Newark
(34.1333°N, 7.9667°W)
Time: 20:24:25
(UTC+00:00)

FO-29 - Pass Details

Date: 11 June 2023
Orbit: 800 x 1321 km, 98.5° (Epoch: 24 September)

Event Time Altitude Azimuth Distance (km) Brightness Sun altitude
Rises 03:37:50 0° 34° (NE) 3,510 14.0 -17.7°
Reaches altitude 10° 03:40:58 10° 53° (NE) 2,645 13.1 -17.2°
Maximum altitude 03:44:57 18° 96° (E) 2,196 11.8 -16.6°
Drops below altitude 10° 03:49:13 10° 138° (SE) 2,867 11.9 -16.0°
Sets 03:52:46 0° 155° (SSE) 3,921 12.5 -15.4°
